Terminal Aerodrome Forecast
Issued by NWS

Home | Current Version | Previous Version | Text Only | Print | Product List | Glossary On
Versions: 1 2 3 4 5 6 7 8 9 10 11 12 13
000
FTUS42 TJSJ 250500
TAFJPS
TAF
TJPS 250530Z 2506/2606 05005KT P6SM SKC
     FM251530 13010KT P6SM FEW030 FEW060
     FM252330 05005KT P6SM FEW025=

USA.gov is the U.S. government's official web portal to all federal, state and local government web resources and services.